Wichita, KS

8:13 AM CST on December 11, 2017 (GMT -0600)
Wichita Eisenhower National Airport

Weather History for KICT - June, 2013

Change the Weather History Date:

Friday, June 21, 2013

  Actual Average Record
Temperature  
Mean Temperature 86 °F 78 °F  
Max Temperature 96 °F 89 °F 105 °F (1936)
Min Temperature 76 °F 67 °F 52 °F (1902)
Degree Days  
Heating Degree Days 0 0  
Month to date heating degree days 3 3  
Since 1 June heating degree days 3 3  
Since 1 July heating degree days 4477 4591  
Cooling Degree Days 21 13  
Month to date cooling degree days 232 204  
Year to date cooling degree days 370 340  
Since 1 June cooling degree days 232 204  
Growing Degree Days 36 (Base 50)    
Moisture  
Dew Point 70 °F    
Average Humidity 57    
Maximum Humidity 74    
Minimum Humidity 39    
Precipitation  
Precipitation 0.00 in 0.18 in 4.03 in (1894)
Month to date precipitation 1.13 3.77  
Year to date precipitation 15.15 15.63  
Snow  
Snow 0.00 in 0.00 in 0.00 in (2007)
Month to date snowfall 0.0 0.0  
Since 1 June snowfall 0.0 0.0  
Since 1 July snowfall 30.0 14.9  
Snow Depth 0.00 in    
Sea Level Pressure  
Sea Level Pressure 29.86 in    
Wind  
Wind Speed 20 mph (South)    
Max Wind Speed 32 mph    
Max Gust Speed 40 mph    
Visibility 10 miles    
Events      
T = Trace of Precipitation, MM = Missing Value Source: NWS Daily Summary

Daily Weather History Graph

Daily Weather History Graph

Search for Another Location

Airport or City:

Trip Planner

Search our weather history database for the weather conditions in past years. The results will help you decide how hot, cold, wet, or windy it might be!

Date:

Astronomy

Jun. 21, 2013 Rise Set
Actual Time 6:08 AM CDT 8:54 PM CDT
Civil Twilight 5:37 AM CDT 9:25 PM CDT
Nautical Twilight 4:58 AM CDT 10:05 PM CDT
Astronomical Twilight 4:13 AM CDT 10:49 PM CDT
Moon 7:08 PM CDT (6/21) 4:23 AM CDT (6/21)
Length of Visible Light 15h 48m
Length of Day
14h 46m
Waxing Gibbous, 95% of the Moon is Illuminated
Jun 21
Waxing Gibbous
Jun 23
Full
Jun 29
Last Quarter
Jul 8
New
Jul 15
First Quarter

Hourly Weather History & Observations

Time (CDT) Temp. Heat Index Dew Point Humidity Pressure Visibility Wind Dir Wind Speed Gust Speed Precip Events Conditions
12:53 AM 80.1 °F 83.2 °F 70.0 °F 71% 29.87 in 10.0 mi SSE 16.1 mph 24.2 mph N/A   Mostly Cloudy
1:53 AM 80.1 °F 83.2 °F 70.0 °F 71% 29.86 in 10.0 mi South 23.0 mph 27.6 mph N/A   Mostly Cloudy
2:53 AM 79.0 °F - 69.1 °F 72% 29.85 in 10.0 mi South 21.9 mph - N/A   Mostly Cloudy
3:53 AM 79.0 °F - 68.0 °F 69% 29.84 in 10.0 mi South 21.9 mph 31.1 mph N/A   Mostly Cloudy
4:53 AM 79.0 °F - 68.0 °F 69% 29.85 in 10.0 mi South 21.9 mph 29.9 mph N/A   Mostly Cloudy
5:53 AM 77.0 °F - 68.0 °F 74% 29.86 in 10.0 mi South 15.0 mph 24.2 mph N/A   Mostly Cloudy
6:53 AM 77.0 °F - 68.0 °F 74% 29.88 in 10.0 mi South 17.3 mph - N/A   Mostly Cloudy
7:53 AM 78.1 °F - 69.1 °F 74% 29.88 in 10.0 mi South 18.4 mph 24.2 mph N/A   Mostly Cloudy
8:53 AM 81.0 °F 83.8 °F 68.0 °F 65% 29.89 in 10.0 mi South 18.4 mph 28.8 mph N/A   Mostly Cloudy
9:53 AM 84.0 °F 87.8 °F 69.1 °F 61% 29.89 in 10.0 mi South 18.4 mph 24.2 mph N/A   Mostly Cloudy
10:53 AM 89.1 °F 94.1 °F 70.0 °F 53% 29.89 in 10.0 mi South 20.7 mph 29.9 mph N/A   Mostly Cloudy
11:53 AM 90.0 °F 95.4 °F 70.0 °F 52% 29.89 in 10.0 mi SSW 24.2 mph 34.5 mph N/A   Mostly Cloudy
12:53 PM 91.0 °F 95.6 °F 69.1 °F 48% 29.88 in 10.0 mi South 21.9 mph 32.2 mph N/A   Mostly Cloudy
1:53 PM 95.0 °F 100.7 °F 69.1 °F 43% 29.87 in 10.0 mi South 19.6 mph 33.4 mph N/A   Mostly Cloudy
2:53 PM 95.0 °F 99.0 °F 66.9 °F 40% 29.85 in 10.0 mi South 25.3 mph 38.0 mph N/A   Mostly Cloudy
3:53 PM 91.9 °F 95.9 °F 68.0 °F 45% 29.82 in 10.0 mi South 16.1 mph 32.2 mph N/A   Mostly Cloudy
4:53 PM 93.0 °F 97.9 °F 69.1 °F 45% 29.81 in 10.0 mi South 21.9 mph 33.4 mph N/A   Mostly Cloudy
5:53 PM 91.0 °F 98.2 °F 72.0 °F 53% 29.82 in 10.0 mi South 21.9 mph 33.4 mph N/A   Mostly Cloudy
6:53 PM 89.1 °F 96.0 °F 72.0 °F 57% 29.83 in 10.0 mi South 24.2 mph 34.5 mph N/A   Mostly Cloudy
7:53 PM 88.0 °F 93.8 °F 71.1 °F 57% 29.84 in 10.0 mi South 18.4 mph 32.2 mph N/A   Mostly Cloudy
8:53 PM 86.0 °F 92.2 °F 72.0 °F 63% 29.84 in 10.0 mi South 20.7 mph 28.8 mph N/A   Mostly Cloudy
9:53 PM 84.0 °F 89.6 °F 72.0 °F 67% 29.85 in 10.0 mi SSE 15.0 mph 25.3 mph N/A   Scattered Clouds
10:53 PM 82.9 °F 87.0 °F 70.0 °F 65% 29.87 in 10.0 mi South 18.4 mph 28.8 mph N/A   Scattered Clouds
11:53 PM 81.0 °F 84.4 °F 70.0 °F 69% 29.88 in 10.0 mi South 18.4 mph 26.5 mph N/A   Scattered Clouds